Location: Narrabri
(30.3170°S, 149.7830°E)
Time: 21:00:19
(UTC+11:00)

Vanguard 1 Rocket - Visible Passes

Search period start: 23 October 2017 00:00
Search period end: 02 November 2017 00:00
Orbit: 655 x 4222 km, 34.3° (Epoch: 22 October)

Date Brightness Start Highest point End Pass type
(mag) Time Alt. Az. Time Alt. Az. Time Alt. Az.
23 Oct 10.6 01:36:33 10° WSW 02:18:44 16° NE 02:20:40 10° NE visible
23 Oct 10.7 04:36:10 17° NNW 04:36:10 17° NNW 04:40:39 10° NNW visible
23 Oct 10.3 19:22:57 10° WNW 19:38:01 88° SSW 20:04:04 10° ESE visible
23 Oct 10.5 21:50:56 10° W 22:12:24 81° S 22:29:37 32° E visible
24 Oct 10.3 00:21:35 10° WSW 00:46:49 75° NW 00:46:49 75° NW visible
24 Oct 10.8 02:56:20 10° WSW 03:30:17 17° N 03:32:55 10° N visible
24 Oct 10.4 20:38:17 10° W 20:56:22 80° S 21:21:30 14° E visible
24 Oct 10.4 23:07:33 10° WSW 23:31:40 88° NNW 23:38:42 63° ENE visible
25 Oct 10.8 01:39:44 10° WSW 02:24:13 - NNE 01:55:54 42° W visible
25 Oct11.004:41:37NNW04:41:37NNW04:13:06Wvisible
25 Oct 10.3 19:26:21 10° W 19:41:12 83° SSW 20:07:08 10° E visible
25 Oct 10.5 21:54:18 10° WSW 22:15:34 84° SSE 22:30:39 38° E visible
26 Oct 10.4 00:24:42 10° WSW 00:47:52 66° NW 00:47:52 66° NW visible
26 Oct 11.1 03:00:25 10° W 03:35:24 - N 03:05:04 16° W visible
26 Oct 10.4 20:41:45 10° W 20:59:40 79° S 21:22:40 18° E visible
26 Oct 10.3 23:10:45 10° WSW 23:34:28 81° NNW 23:39:52 67° NE visible
27 Oct 11.0 01:43:08 10° WSW 02:29:03 - NNE 01:57:05 35° W visible
27 Oct 10.3 19:29:50 10° W 19:44:29 80° S 20:10:16 10° E visible
27 Oct 10.4 21:57:37 10° WSW 22:18:38 88° SSE 22:31:56 43° ENE visible
28 Oct 10.5 00:27:53 10° WSW 00:49:09 57° WNW 00:49:09 57° WNW visible
28 Oct 11.4 03:05:19 10° W 03:39:56 - N 03:06:22 11° W visible
28 Oct 10.4 20:45:11 10° W 21:02:55 81° S 21:24:02 22° E visible
28 Oct 10.3 23:13:57 10° WSW 23:37:08 74° NNW 23:41:16 68° NNE visible
29 Oct 11.2 01:46:51 10° WSW 01:58:28 28° W 01:58:28 28° W visible
29 Oct 10.3 19:33:19 10° W 19:47:49 78° S 20:13:27 10° E visible
29 Oct 10.4 22:00:55 10° WSW 22:21:35 87° NNW 22:33:25 47° ENE visible
30 Oct 10.7 00:31:12 10° WSW 00:50:38 49° WNW 00:50:38 49° WNW visible
30 Oct 10.3 20:48:35 10° WSW 21:06:05 84° SSE 21:25:37 25° ENE visible
30 Oct 10.4 23:17:10 10° WSW 23:39:41 66° NNW 23:42:50 63° N visible
31 Oct 11.3 01:51:04 10° W 02:00:04 22° W 02:00:04 22° W visible
31 Oct 10.2 19:36:48 10° W 19:51:09 78° S 20:16:39 10° E visible
31 Oct 10.4 22:04:12 10° WSW 22:24:26 80° NNW 22:35:06 49° NE visible
01 Nov 10.8 00:34:45 10° WSW 00:52:19 41° WNW 00:52:19 41° WNW visible
01 Nov 10.3 20:51:57 10° WSW 21:09:11 89° SSE 21:27:23 28° ENE visible
